Wind_Speed
23 24 21 18 19 18 17 17 16 15 15 14 15 17 17 17 17 15 15 15 14 12 10 11 11 11 12 13 12 11 11 10 9 10 10 11 13 14 15 14 15 15 16
25 27 25 22 21 20 18 16 16 15 14 15 15 15 16 17 17 18 17 17 16 13 12 14 14 12 12 13 13 12 11 12 12 11 13 14 16 17 18 18 17 18 19
25 26 26 24 23 23 21 20 19 18 17 16 16 15 16 17 16 17 16 17 16 15 16 15 16 16 16 13 11 11 12 12 13 14 14 16 19 21 22 22 21 22 24
27 27 28 28 28 27 26 23 22 21 20 19 18 18 18 19 18 18 18 18 18 18 19 19 17 16 15 13 13 13 14 15 16 18 18 18 19 22 24 25 27 27 27
31 31 32 31 31 31 30 28 26 24 23 23 22 21 20 19 20 20 19 19 17 18 19 19 19 19 18 18 16 17 17 18 18 19 21 21 22 24 25 27 28 29 31
34 36 36 37 32 31 32 32 31 30 28 27 27 26 24 23 22 22 22 22 20 20 21 20 21 21 21 22 21 22 21 21 22 22 24 26 28 28 28 29 30 32 35
42 41 40 40 36 31 32 33 33 32 33 31 29 28 27 28 27 26 25 25 24 22 22 22 23 24 24 24 24 24 25 26 26 28 29 31 32 33 32 33 35 34 35
42 33 51 41 34 41 36 35 36 35 33 34 33 32 30 29 30 30 29 27 27 28 27 25 25 27 28 28 27 27 28 31 33 34 35 35 36 36 36 37 36 37 37
11 6 17 40 37 32 40 39 34 36 35 35 35 37 35 35 32 32 34 31 31 31 30 30 30 31 31 32 31 33 33 33 33 35 35 37 36 36 37 38 41 43 43
12 12 8 20 27 20 31 45 36 37 38 35 35 37 37 38 38 36 37 35 34 35 34 36 36 36 35 35 36 37 37 38 37 37 41 42 40 39 42 43 45 48 50
16 14 15 14 14 12 9 23 17 25 42 41 34 38 39 37 41 43 40 40 38 37 39 39 41 39 37 39 37 37 37 40 43 45 45 45 45 49 52 50 50 51 49
18 17 16 16 15 12 13 17 23 22 26 31 42 47 48 42 45 40 43 43 41 42 44 44 44 42 41 40 37 37 41 45 43 44 45 47 50 49 49 50 49 45 47
19 18 17 18 17 16 17 18 20 21 30 39 41 32 40 47 47 51 56 49 46 44 45 45 47 46 47 52 49 50 49 46 44 42 41 40 38 41 52 42 43 44 46
22 23 22 20 21 21 22 22 23 24 22 24 24 32 34 40 42 38 41 49 44 46 49 50 50 52 48 50 53 51 49 49 53 51 50 42 47 52 50 48 51 52 50
24 25 26 25 25 26 25 25 25 24 24 22 25 26 27 23 33 45 49 44 45 47 49 54 53 51 57 61 58 59 61 55 41 40 40 41 52 52 53 47 44 43 45
25 26 28 29 30 30 29 30 29 28 28 28 28 26 24 25 24 27 37 41 42 49 56 59 57 57 61 64 67 66 60 37 34 34 30 30 35 38 43 44 45 45 48
25 26 27 29 31 33 33 33 34 32 32 31 31 32 29 28 24 26 27 31 33 37 41 39 35 36 35 36 33 31 31 32 33 34 33 41 47 47 47 48 50 50 49
24 24 24 24 25 28 30 34 35 34 34 34 32 32 30 28 29 31 29 28 27 29 29 29 30 31 32 31 33 35 36 37 37 37 38 42 43 45 47 46 46 45 45
21 21 19 18 17 18 20 24 27 29 30 33 33 33 32 31 30 30 30 32 33 32 32 34 36 38 38 39 39 39 38 39 41 40 40 40 40 40 40 41 40 40 39
17 18 17 16 16 16 15 15 16 19 21 24 26 28 29 31 32 33 34 33 34 34 35 37 37 39 37 37 39 40 42 42 41 40 40 37 37 36 34 34 34 37 39
13 14 15 16 18 18 19 19 20 21 22 22 23 24 26 27 29 30 32 32 33 34 35 35 36 36 37 38 38 38 37 37 35 32 31 32 33 35 37 39 41 43 44
5 7 8 10 12 14 14 15 17 18 19 20 20 20 20 20 21 21 22 22 23 24 24 25 25 25 25 26 26 27 29 30 33 35 37 38 39 40 42 44 45 47 46
2 2 3 5 7 8 10 11 13 14 15 16 18 20 21 22 23 24 25 26 27 27 28 28 28 29 30 31 32 34 35 36 38 39 41 42 43 44 46 45 45 45 45
4 5 7 8 10 12 12 14 15 16 17 19 21 23 24 26 28 29 30 31 31 31 31 32 33 34 35 36 36 37 38 39 40 41 43 44 45 44 43 43 43 42 40
7 10 13 14 15 15 17 18 20 21 22 22 23 25 26 27 28 29 31 32 32 33 34 34 35 36 38 39 40 41 42 43 42 41 41 40 39 38 38 39 40 41 41
16 17 19 19 19 20 21 23 24 26 27 28 29 29 29 30 32 34 35 37 37 38 38 39 41 42 43 43 42 41 41 39 37 36 36 36 37 39 40 40 41 42 42
Wind_Direction
205 208 207 211 202 198 206 204 212 214 212 210 205 206 211 215 225 228 231 240 244 241 246 251 248 249 252 259 266 270 262 257 254 269 279 289 293 298 298 297 295 297 307
211 208 213 211 213 206 207 214 212 214 216 220 214 213 217 221 226 233 234 237 243 244 246 251 256 263 271 273 272 268 251 250 259 269 282 292 295 295 294 293 298 296 301
219 212 213 216 216 218 218 219 226 230 227 226 230 227 229 230 228 233 236 239 242 245 251 257 268 271 271 266 261 263 269 263 268 275 278 286 292 292 292 294 299 299 301
214 222 216 214 215 221 225 225 229 231 235 241 240 240 239 238 234 238 239 242 242 249 256 261 266 264 265 260 258 262 268 270 276 279 283 282 283 285 289 293 295 298 299
223 226 223 225 220 218 223 226 229 237 237 237 242 242 244 243 245 246 244 245 248 253 258 261 265 268 271 271 272 269 266 269 272 277 281 284 282 282 286 290 293 293 298
224 229 225 224 223 226 227 229 229 231 233 238 243 247 248 247 249 250 250 249 249 251 255 260 266 267 269 271 275 275 275 275 279 280 283 284 285 284 286 289 293 297 297
238 230 225 223 222 224 229 234 234 233 236 235 238 243 246 250 248 244 249 253 251 250 256 261 265 267 269 275 277 274 275 275 277 279 281 284 284 285 286 287 288 290 293
238 241 235 233 227 224 225 231 237 237 237 242 242 241 242 245 251 253 251 250 254 257 257 259 261 264 266 269 271 274 277 279 280 281 285 285 286 284 286 287 285 284 289
198 224 228 231 240 254 227 231 233 235 234 238 243 247 246 245 246 252 253 251 254 258 260 261 261 265 267 270 274 277 278 276 278 283 287 287 288 282 286 285 285 287 286
209 214 218 222 229 260 250 232 244 238 239 239 245 245 247 249 251 247 253 255 253 255 255 256 258 261 263 267 267 269 272 275 278 278 285 288 290 290 290 289 287 286 288
204 197 206 208 208 235 252 256 258 255 245 247 244 247 242 251 256 254 249 250 252 254 257 259 261 263 264 264 269 273 273 273 274 278 282 283 287 288 286 286 289 291 290
213 210 213 211 207 204 215 237 245 236 239 247 249 254 256 251 254 250 247 248 251 254 256 259 260 260 259 257 263 269 276 278 278 282 279 278 284 285 287 285 287 287 286
234 230 223 227 230 225 224 222 235 246 241 244 250 254 252 249 252 256 261 251 245 250 255 256 258 260 262 265 266 269 277 277 279 281 279 282 271 269 278 281 280 275 282
238 240 243 239 237 236 236 232 228 234 240 247 254 250 254 249 256 260 250 247 245 248 254 256 258 262 264 271 268 273 278 276 281 278 282 280 269 266 266 271 272 282 283
246 241 239 240 243 244 245 247 247 256 262 268 264 261 258 261 256 251 249 254 246 243 250 254 257 263 260 270 276 274 272 277 275 273 275 269 265 275 280 283 283 287 287
249 247 246 246 247 250 250 253 254 255 261 265 270 271 273 263 265 260 253 255 260 260 257 262 265 266 270 271 271 272 268 267 279 281 284 277 272 269 272 277 281 286 290
254 250 248 250 250 251 253 257 260 258 259 261 266 270 275 272 268 253 253 256 263 264 260 260 267 266 261 264 265 268 276 282 282 283 282 271 278 283 286 285 288 292 294
250 253 253 252 252 253 253 255 259 263 267 268 267 270 272 270 272 268 266 266 258 258 267 270 265 264 270 272 276 277 277 276 275 273 275 277 278 281 284 286 288 291 293
246 248 250 254 257 259 259 257 259 261 264 263 268 270 271 273 272 271 270 271 277 277 279 279 281 281 283 286 288 286 284 284 286 285 284 284 283 285 288 290 291 293 294
242 245 252 259 264 268 268 268 269 268 268 268 269 271 273 272 274 277 280 280 279 279 278 278 279 282 282 282 281 281 282 282 284 285 287 287 288 290 291 292 294 294 294
239 241 247 251 256 261 265 266 267 267 268 270 272 273 274 274 275 275 275 275 277 277 279 281 281 281 281 282 284 285 285 285 286 288 288 287 289 291 294 295 295 296 297
238 245 247 251 254 258 262 265 267 269 272 275 277 279 280 281 282 283 283 285 287 288 288 287 287 287 287 287 286 287 287 288 287 288 289 292 294 294 294 294 295 297 298
26 328 295 281 272 268 269 270 272 273 275 278 279 281 284 285 286 288 289 288 286 283 281 281 283 283 284 285 286 286 286 286 287 288 290 292 293 294 293 295 297 299 300
353 339 322 307 296 292 292 292 292 290 290 288 287 286 285 286 286 287 287 287 287 287 286 286 284 283 284 284 284 284 286 287 288 289 290 291 293 295 298 301 300 302 303
313 317 315 308 304 299 296 296 296 294 291 289 286 286 287 288 288 288 287 287 287 286 284 285 286 288 288 288 288 290 291 291 291 293 296 298 299 300 301 302 303 302 303
302 304 304 301 297 295 295 296 296 295 294 293 291 289 290 291 290 289 289 289 289 289 289 290 292 292 291 291 291 292 292 294 295 298 299 299 300 300 300 300 302 302 301
Height
5885 5889 5891 5893 5897 5898 5901 5903 5905 5908 5910 5912 5914 5916 5918 5921 5924 5925 5927 5928 5929 5930 5931 5932 5934 5935 5936 5936 5935 5934 5934 5934 5935 5935 5934 5933 5932 5931 5930 5929 5929 5928 5928
5882 5885 5888 5890 5894 5895 5898 5901 5903 5905 5907 5911 5913 5915 5916 5918 5920 5922 5924 5926 5926 5926 5928 5929 5931 5932 5932 5931 5931 5931 5931 5932 5932 5931 5931 5930 5929 5928 5927 5926 5925 5925 5923
5877 5881 5884 5888 5891 5893 5895 5897 5899 5902 5904 5907 5911 5912 5914 5916 5916 5918 5920 5922 5923 5924 5926 5926 5927 5927 5927 5927 5927 5928 5928 5928 5928 5928 5928 5927 5925 5924 5923 5921 5920 5920 5918
5872 5876 5879 5881 5884 5888 5891 5894 5897 5899 5901 5904 5906 5909 5910 5912 5914 5915 5916 5918 5919 5920 5922 5923 5923 5924 5924 5924 5924 5923 5924 5924 5924 5924 5923 5923 5921 5919 5918 5916 5914 5913 5911
5867 5869 5872 5875 5878 5881 5884 5888 5892 5895 5897 5899 5902 5904 5905 5907 5909 5910 5911 5912 5913 5914 5917 5918 5919 5920 5920 5920 5919 5918 5918 5918 5918 5918 5917 5917 5916 5914 5912 5910 5909 5907 5905
5861 5863 5863 5866 5870 5874 5878 5881 5885 5888 5890 5893 5896 5897 5898 5900 5902 5904 5906 5908 5908 5910 5911 5913 5914 5914 5914 5914 5913 5913 5913 5912 5912 5912 5911 5911 5909 5908 5906 5904 5902 5901 5899
5853 5856 5855 5858 5861 5865 5870 5873 5877 5879 5881 5884 5887 5890 5893 5895 5895 5897 5899 5902 5903 5903 5904 5906 5907 5907 5907 5907 5907 5907 5907 5906 5905 5905 5904 5903 5902 5900 5899 5897 5895 5893 5891
5843 5846 5847 5850 5852 5859 5860 5864 5868 5871 5874 5877 5879 5881 5883 5886 5888 5890 5891 5893 5895 5896 5897 5897 5898 5899 5900 5900 5899 5899 5898 5898 5896 5896 5895 5894 5892 5890 5888 5887 5886 5885 5883
5835 5836 5836 5841 5848 5848 5848 5854 5858 5862 5865 5868 5871 5874 5876 5877 5879 5882 5883 5885 5887 5889 5890 5891 5891 5892 5893 5892 5892 5892 5890 5889 5889 5888 5887 5886 5884 5881 5878 5877 5874 5872 5871
5832 5832 5834 5836 5838 5839 5840 5843 5846 5852 5855 5858 5863 5865 5867 5870 5872 5873 5875 5876 5879 5880 5881 5881 5881 5883 5884 5883 5884 5884 5882 5880 5880 5878 5877 5876 5873 5871 5868 5866 5863 5860 5858
5827 5825 5827 5829 5831 5832 5832 5835 5839 5842 5846 5849 5852 5854 5857 5859 5861 5863 5864 5866 5868 5870 5871 5872 5872 5873 5873 5873 5872 5871 5871 5869 5868 5867 5866 5864 5862 5859 5856 5854 5850 5848 5844
5821 5822 5822 5824 5824 5825 5826 5830 5832 5832 5836 5839 5842 5844 5846 5848 5850 5850 5852 5854 5857 5859 5859 5860 5860 5861 5861 5861 5861 5860 5859 5857 5855 5853 5852 5851 5849 5846 5843 5841 5838 5834 5831
5813 5814 5815 5818 5819 5819 5821 5822 5824 5826 5827 5829 5831 5831 5833 5836 5840 5841 5841 5841 5844 5846 5847 5848 5849 5849 5850 5850 5849 5848 5846 5845 5843 5842 5840 5839 5835 5833 5830 5828 5826 5821 5819
5806 5808 5809 5810 5813 5813 5815 5817 5818 5819 5819 5820 5821 5822 5822 5823 5826 5826 5824 5828 5830 5833 5835 5836 5836 5836 5837 5835 5835 5835 5834 5832 5831 5828 5827 5825 5823 5819 5817 5815 5812 5809 5807
5799 5801 5803 5805 5806 5807 5807 5809 5810 5810 5810 5810 5811 5811 5812 5812 5813 5815 5816 5818 5818 5820 5821 5824 5823 5823 5823 5821 5820 5819 5818 5818 5816 5813 5813 5812 5810 5807 5804 5803 5800 5798 5796
5792 5794 5796 5797 5798 5800 5800 5800 5802 5803 5803 5803 5805 5805 5803 5802 5803 5804 5806 5808 5809 5808 5808 5809 5809 5808 5807 5806 5805 5804 5802 5802 5803 5803 5803 5800 5798 5795 5793 5790 5788 5785 5782
5784 5786 5787 5788 5789 5791 5792 5793 5795 5796 5797 5798 5797 5797 5797 5798 5797 5797 5797 5797 5797 5798 5796 5796 5797 5798 5796 5795 5794 5793 5792 5792 5792 5792 5793 5792 5787 5783 5781 5779 5775 5772 5769
5777 5778 5779 5780 5781 5783 5784 5785 5786 5787 5788 5789 5789 5790 5789 5789 5790 5789 5788 5787 5787 5787 5787 5786 5786 5786 5787 5785 5785 5785 5784 5783 5782 5779 5778 5778 5776 5773 5770 5766 5762 5758 5755
5770 5772 5773 5774 5775 5775 5776 5777 5777 5778 5779 5780 5781 5781 5781 5781 5781 5781 5781 5780 5780 5781 5780 5780 5780 5779 5777 5776 5775 5774 5773 5771 5770 5768 5766 5763 5760 5758 5754 5752 5749 5745 5742
5765 5766 5767 5767 5768 5768 5769 5770 5771 5771 5771 5772 5772 5773 5774 5774 5773 5772 5772 5772 5772 5772 5771 5771 5770 5769 5768 5766 5765 5763 5762 5760 5757 5756 5754 5751 5749 5746 5743 5740 5737 5734 5731
5759 5760 5761 5762 5763 5763 5764 5764 5765 5764 5765 5764 5764 5765 5765 5765 5765 5764 5763 5763 5762 5762 5760 5759 5758 5756 5755 5754 5753 5752 5750 5748 5746 5744 5743 5741 5738 5736 5732 5729 5727 5724 5721
5754 5755 5755 5756 5757 5758 5758 5759 5759 5759 5759 5759 5758 5758 5757 5756 5756 5755 5755 5754 5752 5751 5750 5749 5747 5746 5745 5744 5743 5742 5741 5739 5737 5735 5733 5730 5727 5724 5721 5718 5715 5712 5707
5753 5753 5754 5754 5755 5755 5756 5756 5756 5756 5755 5754 5754 5753 5752 5751 5751 5750 5749 5748 5746 5745 5744 5743 5741 5739 5738 5735 5733 5732 5731 5729 5727 5725 5722 5719 5715 5712 5709 5705 5701 5697 5693
5752 5752 5752 5751 5751 5750 5750 5750 5749 5749 5748 5747 5746 5745 5745 5744 5743 5742 5741 5739 5738 5736 5734 5733 5731 5729 5728 5727 5725 5724 5721 5718 5716 5713 5709 5705 5702 5699 5695 5692 5688 5684 5679
5752 5751 5750 5749 5749 5748 5747 5746 5745 5744 5743 5741 5740 5739 5738 5737 5735 5734 5733 5731 5730 5728 5726 5724 5722 5720 5718 5714 5712 5710 5708 5705 5702 5698 5695 5691 5688 5685 5682 5679 5675 5672 5668
5746 5746 5745 5744 5743 5742 5741 5740 5739 5737 5735 5734 5732 5731 5729 5728 5726 5723 5722 5719 5717 5715 5713 5711 5708 5706 5704 5701 5699 5697 5694 5692 5689 5686 5683 5680 5677 5674 5671 5668 5666 5662 5659